CT1AKV-10 Estrada Real PT current weather conditions

sailwx.info

Wind from 001

Air temperature 13.9° C
Dewpoint 13.7° C

Last reported at 2016-Feb-10 22:00 UTC.
Time now 2016-Feb-11 13:07 UTC

Location: N 39°11' W 008°44'.
View on Google Maps.

See reports from other nearby stations

  
Tides and Currents Weather Stations Pressure Air Temp Water Temp Dewpoint Dewpoint Depression Visibility Wind Speed Wind Dir Waves Ship Positions
date/time (UTC)wind fromknots sea level pressurealtimeterstation pressurevisibilityair tempwater tempwave heightnotes
2016-Feb-10 22:00 001 13.9
2016-Feb-10 21:45 001 1 gusting 6 14.4
2016-Feb-10 21:30 001 1 gusting 7 14.4
2016-Feb-10 21:15 001 1 gusting 5 14.4
2016-Feb-10 21:00 001 0 gusting 3 14.4
2016-Feb-10 20:45 001 2 gusting 6 14.4
2016-Feb-10 20:30 001 2 gusting 6 14.4
2016-Feb-10 20:15 001 4 gusting 9 14.4
2016-Feb-10 20:00 001 2 gusting 9 14.4
2016-Feb-10 19:45 001 1 gusting 6 14.4
2016-Feb-10 19:30 001 0 gusting 3 14.4
2016-Feb-10 19:15 001 1 gusting 6 14.4
2016-Feb-10 19:00 001 0 gusting 6 15.0
2016-Feb-10 18:45 001 2 gusting 10 14.4
2016-Feb-10 18:30 001 3 gusting 9 15.0
2016-Feb-10 18:15 001 3 gusting 9 15.0
2016-Feb-10 18:00 001 2 gusting 8 15.0
2016-Feb-10 17:45 001 3 gusting 9 15.6
2016-Feb-10 17:30 001 2 gusting 11 15.6
2016-Feb-10 17:15 001 2 gusting 9 15.6
2016-Feb-10 17:00 001 2 gusting 10 15.6
2016-Feb-10 16:45 001 4 gusting 11 15.6
2016-Feb-10 16:30 001 2 gusting 9 15.6
2016-Feb-10 16:15 001 3 gusting 12 15.6
2016-Feb-10 16:00 001 3 gusting 10 16.1
2016-Feb-10 15:45 001 2 gusting 9 16.1
2016-Feb-10 15:30 001 2 gusting 9 16.1
2016-Feb-10 15:15 001 3 gusting 12 15.6
2016-Feb-10 15:00 001 2 gusting 11 15.6
2016-Feb-10 14:45 001 1 gusting 6 15.6
2016-Feb-10 14:30 001 2 gusting 6 15.6
2016-Feb-10 14:15 001 2 gusting 10 15.6
2016-Feb-10 14:00 001 2 gusting 7 15.6
2016-Feb-10 13:45 001 2 gusting 13 15.6
2016-Feb-10 13:30 001 2 gusting 8 16.1
2016-Feb-10 13:15 001 4 gusting 13 16.1
2016-Feb-10 13:00 001 3 gusting 13 16.7
2016-Feb-10 12:45 001 2 gusting 8 16.1
2016-Feb-10 12:30 001 2 gusting 9 16.1
2016-Feb-10 12:15 001 3 gusting 9 16.1
2016-Feb-10 12:00 001 2 gusting 9 16.1
2016-Feb-10 11:45 001 3 gusting 13 16.1
2016-Feb-10 11:30 001 2 gusting 9 16.1
2016-Feb-10 11:15 001 3 gusting 9 16.1
2016-Feb-10 11:00 001 2 gusting 8 16.1
2016-Feb-10 10:45 001 2 gusting 10 15.6
2016-Feb-10 10:30 001 1 gusting 8 15.6
2016-Feb-10 10:15 001 2 gusting 6 15.6
2016-Feb-10 10:00 001 2 gusting 7 15.6
2016-Feb-10 09:45 001 2 gusting 8 15.6
2016-Feb-10 09:30 001 2 gusting 7 15.6
2016-Feb-10 09:15 001 2 gusting 9 15.0
2016-Feb-10 09:00 001 3 gusting 10 15.0
2016-Feb-10 08:45 001 2 gusting 6 15.0
2016-Feb-10 08:30 001 1 gusting 6 14.4
2016-Feb-10 08:15 001 2 gusting 8 14.4
2016-Feb-10 08:00 001 2 gusting 8 14.4
2016-Feb-10 07:45 001 2 gusting 8 14.4
2016-Feb-10 07:30 001 2 gusting 7 14.4
2016-Feb-10 07:15 001 1 gusting 6 13.9
2016-Feb-10 07:00 001 0 gusting 4 13.9
2016-Feb-10 06:45 001 1 gusting 5 13.9
2016-Feb-10 06:30 001 1 gusting 5 14.4
2016-Feb-10 06:15 001 1 gusting 6 14.4
2016-Feb-10 06:00 001 2 gusting 6 14.4
2016-Feb-10 05:45 001 1 gusting 4 14.4
2016-Feb-10 05:30 001 2 gusting 7 14.4
2016-Feb-10 05:15 001 2 gusting 9 14.4
2016-Feb-10 05:00 001 2 gusting 6 14.4
2016-Feb-10 04:45 001 2 gusting 7 14.4
2016-Feb-10 04:30 001 2 gusting 6 14.4
2016-Feb-10 04:15 001 1 gusting 6 14.4
2016-Feb-10 04:00 001 1 gusting 5 13.9
2016-Feb-10 03:45 001 0 gusting 5 13.9
2016-Feb-10 03:30 001 0 gusting 3 13.9
2016-Feb-10 03:15 001 0 gusting 4 13.9
2016-Feb-10 03:00 001 2 gusting 6 13.9
2016-Feb-10 02:45 001 1 gusting 8 13.9
2016-Feb-10 02:30 001 1 gusting 6 13.9
2016-Feb-10 02:15 001 0 gusting 3 13.9
2016-Feb-10 02:00 001 1 gusting 4 13.9
2016-Feb-10 01:45 001 0 gusting 4 13.9
2016-Feb-10 01:30 001 0 gusting 3 13.9
2016-Feb-10 01:15 001 1 gusting 5 13.9
2016-Feb-10 01:00 001 1 gusting 6 13.9
2016-Feb-10 00:45 001 0 gusting 3 13.9
2016-Feb-10 00:30 001 1 gusting 6 14.4
2016-Feb-10 00:15 001 2 gusting 7 13.9
2016-Feb-10 00:00 001 0 gusting 4 13.9
2016-Feb-09 23:45 001 0 gusting 6 13.9
2016-Feb-09 23:30 001 1 gusting 6 14.4
2016-Feb-09 23:15 001 1 gusting 6 14.4
2016-Feb-09 23:00 001 1 gusting 6 14.4
2016-Feb-09 22:45 001 0 gusting 5 14.4
2016-Feb-09 22:30 001 1 gusting 6 14.4
2016-Feb-09 22:15 001 2 gusting 7 14.4
2016-Feb-09 22:00 001 1 gusting 6 14.4
2016-Feb-09 21:45 001 2 gusting 8 14.4
2016-Feb-09 21:30 001 3 gusting 12 14.4
2016-Feb-09 21:15 001 1 gusting 7 14.4
2016-Feb-09 21:00 001 2 gusting 8 14.4
2016-Feb-09 20:45 001 3 gusting 13 14.4
2016-Feb-09 20:30 001 2 gusting 11 14.4
2016-Feb-09 20:15 001 2 gusting 6 14.4
2016-Feb-09 20:00 001 2 gusting 8 14.4
2016-Feb-09 19:45 001 2 gusting 8 14.4
2016-Feb-09 19:30 001 3 gusting 8 14.4
2016-Feb-09 19:15 001 3 gusting 10 14.4
2016-Feb-09 19:00 001 3 gusting 9 14.4
2016-Feb-09 18:45 001 2 gusting 7 14.4
2016-Feb-09 18:30 001 1 gusting 8 14.4
2016-Feb-09 18:15 001 0 gusting 7 14.4
2016-Feb-09 17:45 001 2 gusting 6 14.4
2016-Feb-09 16:45 001 1 gusting 6 15.0
2016-Feb-09 16:30 001 1 gusting 6 15.0
2016-Feb-09 16:15 001 1 gusting 6 15.0
2016-Feb-09 16:00 001 3 gusting 8 15.0
2016-Feb-09 15:45 001 2 gusting 12 15.0
2016-Feb-09 15:30 001 3 gusting 11 15.0
2016-Feb-09 15:15 001 1 gusting 9 15.6
2016-Feb-09 15:00 001 3 gusting 13 15.6
2016-Feb-09 14:45 001 3 gusting 13 15.6
2016-Feb-09 14:30 001 3 gusting 12 15.6
2016-Feb-09 14:15 001 3 gusting 11 15.6
2016-Feb-09 14:00 001 2 gusting 9 15.6
2016-Feb-09 13:45 001 4 gusting 13 15.6
2016-Feb-09 13:30 001 3 gusting 9 16.1
2016-Feb-09 13:15 001 3 gusting 13 16.1
2016-Feb-09 13:00 001 3 gusting 12 16.1